Location: Kennington
(51.1500°N, 0.8833°E)
Time: 09:57:32
(UTC+00:00)

ADEOS II - Pass Details

Date: 21 September 2020
Orbit: 799 x 801 km, 98.5° (Epoch: 30 October)

Event Time Altitude Azimuth Distance (km) Brightness Sun altitude
Rises 03:58:01 0° 6° (N) 3,323 5.7 -16.6°
Reaches altitude 10° 04:00:48 10° 353° (N) 2,388 4.7 -16.2°
Maximum altitude 04:04:46 22° 303° (WNW) 1,680 3.4 -15.6°
Enters shadow 04:06:20 20° 279° (W) 1,805 3.4 -15.4°
